Year,Month,Day,Hour,Minute,Value (Times are PST for temperature in C)
2010,07,18,00,00,12.70
2010,07,18,00,01,12.70
2010,07,18,00,02,12.70
2010,07,18,00,03,12.70
2010,07,18,00,04,12.70
2010,07,18,00,05,12.70
2010,07,18,00,06,12.70
2010,07,18,00,07,12.70
2010,07,18,00,08,12.70
2010,07,18,00,09,12.70
2010,07,18,00,10,12.70
2010,07,18,00,11,12.70
2010,07,18,00,12,12.70
2010,07,18,00,13,12.70
2010,07,18,00,14,12.70
2010,07,18,00,15,12.60
2010,07,18,00,16,12.60
2010,07,18,00,17,12.60
2010,07,18,00,18,12.60
2010,07,18,00,19,12.60
2010,07,18,00,20,12.60
2010,07,18,00,21,12.50
2010,07,18,00,22,12.50
2010,07,18,00,23,12.50
2010,07,18,00,24,12.50
2010,07,18,00,25,12.50
2010,07,18,00,26,12.50
2010,07,18,00,27,12.40
2010,07,18,00,28,12.40
2010,07,18,00,29,12.40
2010,07,18,00,30,12.40
2010,07,18,00,31,12.40
2010,07,18,00,32,12.40
2010,07,18,00,33,12.40
2010,07,18,00,34,12.40
2010,07,18,00,35,12.40
2010,07,18,00,36,12.40
2010,07,18,00,37,12.40
2010,07,18,00,38,12.40
2010,07,18,00,39,12.40
2010,07,18,00,40,12.40
2010,07,18,00,41,12.40
2010,07,18,00,42,12.40
2010,07,18,00,43,12.40
2010,07,18,00,44,12.40
2010,07,18,00,45,12.40
2010,07,18,00,46,12.40
2010,07,18,00,47,12.40
2010,07,18,00,48,12.40
2010,07,18,00,49,12.40
2010,07,18,00,50,12.40
2010,07,18,00,51,12.40
2010,07,18,00,52,12.40
2010,07,18,00,53,12.50
2010,07,18,00,54,12.50
2010,07,18,00,55,12.50
2010,07,18,00,56,12.50
2010,07,18,00,57,12.50
2010,07,18,00,58,12.50
2010,07,18,00,59,12.50
2010,07,18,01,00,12.50
2010,07,18,01,01,12.50
2010,07,18,01,02,12.50
2010,07,18,01,03,12.50
2010,07,18,01,04,12.50
2010,07,18,01,05,12.50
2010,07,18,01,06,12.50
2010,07,18,01,07,12.50
2010,07,18,01,08,12.50
2010,07,18,01,09,12.50
2010,07,18,01,10,12.50
2010,07,18,01,11,12.50
2010,07,18,01,12,12.50
2010,07,18,01,13,12.50
2010,07,18,01,14,12.50
2010,07,18,01,15,12.50
2010,07,18,01,16,12.50
2010,07,18,01,17,12.40
2010,07,18,01,18,12.50
2010,07,18,01,19,12.40
2010,07,18,01,20,12.40
2010,07,18,01,21,12.40
2010,07,18,01,22,12.40
2010,07,18,01,23,12.40
2010,07,18,01,24,12.40
2010,07,18,01,25,12.40
2010,07,18,01,26,12.30
2010,07,18,01,27,12.30
2010,07,18,01,28,12.30
2010,07,18,01,29,12.30
2010,07,18,01,30,12.30
2010,07,18,01,31,12.30
2010,07,18,01,32,12.30
2010,07,18,01,33,12.30
2010,07,18,01,34,12.30
2010,07,18,01,35,12.30
2010,07,18,01,36,12.30
2010,07,18,01,37,12.30
2010,07,18,01,38,12.30
2010,07,18,01,39,12.30
2010,07,18,01,40,12.30
2010,07,18,01,41,12.30
2010,07,18,01,42,12.30
2010,07,18,01,43,12.30
2010,07,18,01,44,12.30
2010,07,18,01,45,12.30
2010,07,18,01,46,12.20
2010,07,18,01,47,12.20
2010,07,18,01,48,12.20
2010,07,18,01,49,12.20
2010,07,18,01,50,12.20
2010,07,18,01,51,12.20
2010,07,18,01,52,12.20
2010,07,18,01,53,12.20
2010,07,18,01,54,12.20
2010,07,18,01,55,12.20
2010,07,18,01,56,12.20
2010,07,18,01,57,12.20
2010,07,18,01,58,12.20
2010,07,18,01,59,12.20
2010,07,18,02,00,12.20
2010,07,18,02,01,12.20
2010,07,18,02,02,12.20
2010,07,18,02,03,12.20
2010,07,18,02,04,12.20
2010,07,18,02,05,12.20
2010,07,18,02,06,12.20
2010,07,18,02,07,12.20
2010,07,18,02,08,12.20
2010,07,18,02,09,12.20
2010,07,18,02,10,12.20
2010,07,18,02,11,12.20
2010,07,18,02,12,12.20
2010,07,18,02,13,12.20
2010,07,18,02,14,12.10
2010,07,18,02,15,12.10
2010,07,18,02,16,12.10
2010,07,18,02,17,12.10
2010,07,18,02,18,12.10
2010,07,18,02,19,12.10
2010,07,18,02,20,12.10
2010,07,18,02,21,12.00
2010,07,18,02,22,12.00
2010,07,18,02,23,12.00
2010,07,18,02,24,11.90
2010,07,18,02,25,11.90
2010,07,18,02,26,11.90
2010,07,18,02,27,11.90
2010,07,18,02,28,11.90
2010,07,18,02,29,11.80
2010,07,18,02,30,11.80
2010,07,18,02,31,11.80
2010,07,18,02,32,11.80
2010,07,18,02,33,11.80
2010,07,18,02,34,11.80
2010,07,18,02,35,11.80
2010,07,18,02,36,11.80
2010,07,18,02,37,11.80
2010,07,18,02,38,11.80
2010,07,18,02,39,11.80
2010,07,18,02,40,11.80
2010,07,18,02,41,11.80
2010,07,18,02,42,11.70
2010,07,18,02,43,11.70
2010,07,18,02,44,11.70
2010,07,18,02,45,11.70
2010,07,18,02,46,11.70
2010,07,18,02,47,11.70
2010,07,18,02,48,11.70
2010,07,18,02,49,11.70
2010,07,18,02,50,11.70
2010,07,18,02,51,11.70
2010,07,18,02,52,11.70
2010,07,18,02,53,11.70
2010,07,18,02,54,11.60
2010,07,18,02,55,11.60
2010,07,18,02,56,11.60
2010,07,18,02,57,11.60
2010,07,18,02,58,11.60
2010,07,18,02,59,11.60
2010,07,18,03,00,11.60
2010,07,18,03,01,11.60
2010,07,18,03,02,11.60
2010,07,18,03,03,11.60
2010,07,18,03,04,11.60
2010,07,18,03,05,11.60
2010,07,18,03,06,11.60
2010,07,18,03,07,11.60
2010,07,18,03,08,11.50
2010,07,18,03,09,11.50
2010,07,18,03,10,11.50
2010,07,18,03,11,11.50
2010,07,18,03,12,11.40
2010,07,18,03,13,11.40
2010,07,18,03,14,11.40
2010,07,18,03,15,11.40
2010,07,18,03,16,11.40
2010,07,18,03,17,11.40
2010,07,18,03,18,11.40
2010,07,18,03,19,11.30
2010,07,18,03,20,11.30
2010,07,18,03,21,11.30
2010,07,18,03,22,11.30
2010,07,18,03,23,11.20
2010,07,18,03,24,11.20
2010,07,18,03,25,11.20
2010,07,18,03,26,11.20
2010,07,18,03,27,11.20
2010,07,18,03,28,11.20
2010,07,18,03,29,11.20
2010,07,18,03,30,11.20
2010,07,18,03,31,11.10
2010,07,18,03,32,11.10
2010,07,18,03,33,11.10
2010,07,18,03,34,11.10
2010,07,18,03,35,11.10
2010,07,18,03,36,11.10
2010,07,18,03,37,11.10
2010,07,18,03,38,11.00
2010,07,18,03,39,11.00
2010,07,18,03,40,11.00
2010,07,18,03,41,11.00
2010,07,18,03,42,11.00
2010,07,18,03,43,11.10
2010,07,18,03,44,11.10
2010,07,18,03,45,11.10
2010,07,18,03,46,11.10
2010,07,18,03,47,11.10
2010,07,18,03,48,11.10
2010,07,18,03,49,11.10
2010,07,18,03,50,11.10
2010,07,18,03,51,11.10
2010,07,18,03,52,11.10
2010,07,18,03,53,11.20
2010,07,18,03,54,11.20
2010,07,18,03,55,11.30
2010,07,18,03,56,11.30
2010,07,18,03,57,11.30
2010,07,18,03,58,11.30
2010,07,18,03,59,11.30
2010,07,18,04,00,11.30
2010,07,18,04,01,11.30
2010,07,18,04,02,11.30
2010,07,18,04,03,11.30
2010,07,18,04,04,11.30
2010,07,18,04,05,11.30
2010,07,18,04,06,11.30
2010,07,18,04,07,11.30
2010,07,18,04,08,11.30
2010,07,18,04,09,11.30
2010,07,18,04,10,11.30
2010,07,18,04,11,11.30
2010,07,18,04,12,11.20
2010,07,18,04,13,11.20
2010,07,18,04,14,11.20
2010,07,18,04,15,11.20
2010,07,18,04,16,11.10
2010,07,18,04,17,11.10
2010,07,18,04,18,11.10
2010,07,18,04,19,11.10
2010,07,18,04,20,11.10
2010,07,18,04,21,11.10
2010,07,18,04,22,11.10
2010,07,18,04,23,11.10
2010,07,18,04,24,11.10
2010,07,18,04,25,11.10
2010,07,18,04,26,11.10
2010,07,18,04,27,11.00
2010,07,18,04,28,11.00
2010,07,18,04,29,10.90
2010,07,18,04,30,10.90
2010,07,18,04,31,10.90
2010,07,18,04,32,10.90
2010,07,18,04,33,10.90
2010,07,18,04,34,10.90
2010,07,18,04,35,10.80
2010,07,18,04,36,10.90
2010,07,18,04,37,10.90
2010,07,18,04,38,10.90
2010,07,18,04,39,10.90
2010,07,18,04,40,10.90
2010,07,18,04,41,10.90
2010,07,18,04,42,10.90
2010,07,18,04,43,10.90
2010,07,18,04,44,10.90
2010,07,18,04,45,11.00
2010,07,18,04,46,11.00
2010,07,18,04,47,11.00
2010,07,18,04,48,10.90
2010,07,18,04,49,10.90
2010,07,18,04,50,10.90
2010,07,18,04,51,10.90
2010,07,18,04,52,10.90
2010,07,18,04,53,10.90
2010,07,18,04,54,10.90
2010,07,18,04,55,10.90
2010,07,18,04,56,10.90
2010,07,18,04,57,10.90
2010,07,18,04,58,10.90
2010,07,18,04,59,10.90
2010,07,18,05,00,10.90
2010,07,18,05,01,10.90
2010,07,18,05,02,10.80
2010,07,18,05,03,10.80
2010,07,18,05,04,10.80
2010,07,18,05,05,10.80
2010,07,18,05,06,10.80
2010,07,18,05,07,10.80
2010,07,18,05,08,10.80
2010,07,18,05,09,10.80
2010,07,18,05,10,10.70
2010,07,18,05,11,10.70
2010,07,18,05,12,10.80
2010,07,18,05,13,10.80
2010,07,18,05,14,10.80
2010,07,18,05,15,10.80
2010,07,18,05,16,10.80
2010,07,18,05,17,10.80
2010,07,18,05,18,10.80
2010,07,18,05,19,10.80
2010,07,18,05,20,10.80
2010,07,18,05,21,10.80
2010,07,18,05,22,10.80
2010,07,18,05,23,10.80
2010,07,18,05,24,10.80
2010,07,18,05,25,10.80
2010,07,18,05,26,10.80
2010,07,18,05,27,10.80
2010,07,18,05,28,10.80
2010,07,18,05,29,10.80
2010,07,18,05,30,10.80
2010,07,18,05,31,10.90
2010,07,18,05,32,10.90
2010,07,18,05,33,10.90
2010,07,18,05,34,11.00
2010,07,18,05,35,11.00
2010,07,18,05,36,11.00
2010,07,18,05,37,11.00
2010,07,18,05,38,11.00
2010,07,18,05,39,11.00
2010,07,18,05,40,11.00
2010,07,18,05,41,10.90
2010,07,18,05,42,10.90
2010,07,18,05,43,10.90
2010,07,18,05,44,10.90
2010,07,18,05,45,10.90
2010,07,18,05,46,10.90
2010,07,18,05,47,11.00
2010,07,18,05,48,11.00
2010,07,18,05,49,10.90
2010,07,18,05,50,10.90
2010,07,18,05,51,10.90
2010,07,18,05,52,10.90
2010,07,18,05,53,10.90
2010,07,18,05,54,10.90
2010,07,18,05,55,10.90
2010,07,18,05,56,10.80
2010,07,18,05,57,10.80
2010,07,18,05,58,10.80
2010,07,18,05,59,10.80
2010,07,18,06,00,10.80
2010,07,18,06,01,10.80
2010,07,18,06,02,10.70
2010,07,18,06,03,10.70
2010,07,18,06,04,10.70
2010,07,18,06,05,10.70
2010,07,18,06,06,10.70
2010,07,18,06,07,10.80
2010,07,18,06,08,10.80
2010,07,18,06,09,10.80
2010,07,18,06,10,10.80
2010,07,18,06,11,10.80
2010,07,18,06,12,10.80
2010,07,18,06,13,10.80
2010,07,18,06,14,10.80
2010,07,18,06,15,10.80
2010,07,18,06,16,10.80
2010,07,18,06,17,10.80
2010,07,18,06,18,10.90
2010,07,18,06,19,11.00
2010,07,18,06,20,11.00
2010,07,18,06,21,11.00
2010,07,18,06,22,11.10
2010,07,18,06,23,11.10
2010,07,18,06,24,11.20
2010,07,18,06,25,11.20
2010,07,18,06,26,11.20
2010,07,18,06,27,11.20
2010,07,18,06,28,11.20
2010,07,18,06,29,11.30
2010,07,18,06,30,11.30
2010,07,18,06,31,11.30
2010,07,18,06,32,11.30
2010,07,18,06,33,11.40
2010,07,18,06,34,11.40
2010,07,18,06,35,11.40
2010,07,18,06,36,11.40
2010,07,18,06,38,11.50
2010,07,18,06,39,11.60
2010,07,18,06,41,11.60
2010,07,18,06,42,11.60
2010,07,18,06,43,11.60
2010,07,18,06,44,11.60
2010,07,18,06,45,11.60
2010,07,18,06,46,11.70
2010,07,18,06,47,11.70
2010,07,18,06,48,11.70
2010,07,18,06,49,11.70
2010,07,18,06,50,11.70
2010,07,18,06,51,11.80
2010,07,18,06,52,11.80
2010,07,18,06,53,11.80
2010,07,18,06,55,11.90
2010,07,18,06,56,11.90
2010,07,18,06,57,12.00
2010,07,18,06,58,12.00
2010,07,18,06,59,12.00
2010,07,18,07,01,12.10
2010,07,18,07,02,12.10
2010,07,18,08,53,14.10
2010,07,18,08,54,14.10
2010,07,18,08,55,14.00
2010,07,18,08,56,14.00
2010,07,18,08,57,14.00
2010,07,18,08,58,13.90
2010,07,18,08,59,13.90
2010,07,18,09,00,13.90
2010,07,18,09,01,13.90
2010,07,18,09,02,13.90
2010,07,18,09,03,13.90
2010,07,18,09,04,13.90
2010,07,18,09,05,13.90
2010,07,18,09,06,14.00
2010,07,18,09,07,14.10
2010,07,18,09,08,14.10
2010,07,18,09,09,14.00
2010,07,18,09,10,13.90
2010,07,18,09,11,13.90
2010,07,18,09,12,14.00
2010,07,18,09,13,14.00
2010,07,18,09,14,14.10
2010,07,18,09,15,14.20
2010,07,18,09,16,14.20
2010,07,18,09,17,14.20
2010,07,18,09,18,14.20
2010,07,18,09,19,14.10
2010,07,18,09,20,14.10
2010,07,18,09,21,14.20
2010,07,18,09,22,14.20
2010,07,18,09,23,14.20
2010,07,18,09,24,14.20
2010,07,18,09,25,14.30
2010,07,18,09,26,14.40
2010,07,18,09,27,14.40
2010,07,18,09,28,14.40
2010,07,18,09,29,14.40
2010,07,18,09,30,14.50
2010,07,18,09,31,14.60
2010,07,18,09,32,14.70
2010,07,18,09,33,14.70
2010,07,18,09,34,14.70
2010,07,18,09,35,14.60
2010,07,18,09,36,14.60
2010,07,18,09,37,14.60
2010,07,18,09,38,14.50
2010,07,18,09,39,14.50
2010,07,18,09,40,14.40
2010,07,18,09,41,14.30
2010,07,18,09,42,14.40
2010,07,18,09,43,14.40
2010,07,18,09,44,14.40
2010,07,18,09,45,14.40
2010,07,18,09,46,14.40
2010,07,18,09,47,14.50
2010,07,18,09,48,14.60
2010,07,18,09,49,14.70
2010,07,18,09,50,14.70
2010,07,18,09,51,14.70
2010,07,18,09,52,14.70
2010,07,18,09,53,14.60
2010,07,18,09,54,14.70
2010,07,18,09,55,14.70
2010,07,18,09,56,14.70
2010,07,18,09,57,14.60
2010,07,18,09,58,14.60
2010,07,18,09,59,14.50
2010,07,18,10,00,14.50
2010,07,18,10,01,14.50
2010,07,18,10,02,14.50
2010,07,18,10,03,14.50
2010,07,18,10,04,14.50
2010,07,18,10,05,14.40
2010,07,18,10,06,14.40
2010,07,18,10,07,14.30
2010,07,18,10,08,14.30
2010,07,18,10,09,14.30
2010,07,18,10,10,14.30
2010,07,18,10,11,14.30
2010,07,18,10,12,14.30
2010,07,18,10,13,14.30
2010,07,18,10,14,14.40
2010,07,18,10,15,14.40
2010,07,18,10,16,14.40
2010,07,18,10,17,14.40
2010,07,18,10,18,14.50
2010,07,18,10,19,14.50
2010,07,18,10,20,14.50
2010,07,18,10,21,14.50
2010,07,18,10,22,14.50
2010,07,18,10,23,14.50
2010,07,18,10,24,14.40
2010,07,18,10,25,14.30
2010,07,18,10,26,14.30
2010,07,18,10,27,14.30
2010,07,18,10,28,14.30
2010,07,18,10,29,14.40
2010,07,18,10,30,14.40
2010,07,18,10,31,14.30
2010,07,18,10,32,14.30
2010,07,18,10,33,14.20
2010,07,18,10,34,14.10
2010,07,18,10,35,14.10
2010,07,18,10,36,14.00
2010,07,18,10,37,14.00
2010,07,18,10,38,14.00
2010,07,18,10,39,14.10
2010,07,18,10,40,14.00
2010,07,18,10,41,14.00
2010,07,18,10,42,14.00
2010,07,18,10,43,14.00
2010,07,18,10,44,14.00
2010,07,18,10,45,14.00
2010,07,18,10,46,13.90
2010,07,18,10,47,13.80
2010,07,18,10,48,13.80
2010,07,18,10,49,13.80
2010,07,18,10,50,13.90
2010,07,18,10,51,13.90
2010,07,18,10,52,13.80
2010,07,18,10,53,13.80
2010,07,18,10,54,13.70
2010,07,18,10,55,13.60
2010,07,18,10,56,13.60
2010,07,18,10,57,13.70
2010,07,18,10,58,13.80
2010,07,18,10,59,13.90
2010,07,18,11,00,13.80
2010,07,18,11,01,13.80
2010,07,18,11,02,13.70
2010,07,18,11,03,13.70
2010,07,18,11,04,13.80
2010,07,18,11,05,13.80
2010,07,18,11,06,13.90
2010,07,18,11,07,13.90
2010,07,18,11,08,14.00
2010,07,18,11,09,14.00
2010,07,18,11,10,14.00
2010,07,18,11,11,14.00
2010,07,18,11,12,14.10
2010,07,18,11,13,14.10
2010,07,18,11,14,14.20
2010,07,18,11,15,14.20
2010,07,18,11,16,14.20
2010,07,18,11,17,14.00
2010,07,18,11,18,14.00
2010,07,18,11,19,13.90
2010,07,18,11,20,13.80
2010,07,18,11,21,13.80
2010,07,18,11,22,13.80
2010,07,18,11,23,13.80
2010,07,18,11,24,13.80
2010,07,18,11,25,13.90
2010,07,18,11,26,14.00
2010,07,18,11,27,14.10
2010,07,18,11,28,14.00
2010,07,18,11,29,13.90
2010,07,18,11,30,13.90
2010,07,18,11,31,13.90
2010,07,18,11,32,14.00
2010,07,18,11,33,14.00
2010,07,18,11,34,14.00
2010,07,18,11,35,13.90
2010,07,18,11,36,13.80
2010,07,18,11,37,13.80
2010,07,18,11,38,13.80
2010,07,18,11,39,13.80
2010,07,18,11,40,13.80
2010,07,18,11,41,13.80
2010,07,18,11,42,13.80
2010,07,18,11,43,13.80
2010,07,18,11,44,13.90
2010,07,18,11,45,13.90
2010,07,18,11,46,13.90
2010,07,18,11,47,14.00
2010,07,18,11,48,14.00
2010,07,18,11,49,13.90
2010,07,18,11,50,13.90
2010,07,18,11,51,14.00
2010,07,18,11,52,14.10
2010,07,18,11,53,14.10
2010,07,18,11,54,14.10
2010,07,18,11,55,14.10
2010,07,18,11,56,14.10
2010,07,18,11,57,14.10
2010,07,18,11,58,14.10
2010,07,18,11,59,14.00
2010,07,18,12,00,14.00
2010,07,18,12,01,13.90
2010,07,18,12,02,14.00
2010,07,18,12,03,14.10
2010,07,18,12,04,14.10
2010,07,18,12,05,14.10
2010,07,18,12,06,14.10
2010,07,18,12,07,14.20
2010,07,18,12,08,14.20
2010,07,18,12,09,14.20
2010,07,18,12,10,14.20
2010,07,18,12,11,14.40
2010,07,18,12,12,14.50
2010,07,18,12,13,14.50
2010,07,18,12,14,14.40
2010,07,18,12,15,14.30
2010,07,18,12,16,14.30
2010,07,18,12,17,14.30
2010,07,18,12,18,14.30
2010,07,18,12,19,14.30
2010,07,18,12,20,14.40
2010,07,18,12,21,14.40
2010,07,18,12,22,14.40
2010,07,18,12,23,14.50
2010,07,18,12,24,14.60
2010,07,18,12,25,14.60
2010,07,18,12,26,14.70
2010,07,18,12,27,14.70
2010,07,18,12,28,14.80
2010,07,18,12,29,15.00
2010,07,18,12,30,15.00
2010,07,18,12,31,15.00
2010,07,18,12,32,15.20
2010,07,18,12,33,15.20
2010,07,18,12,34,15.20
2010,07,18,12,35,15.00
2010,07,18,12,36,15.00
2010,07,18,12,37,15.00
2010,07,18,12,38,15.00
2010,07,18,12,39,15.00
2010,07,18,12,40,15.10
2010,07,18,12,41,15.00
2010,07,18,12,42,15.10
2010,07,18,12,43,15.30
2010,07,18,12,44,15.40
2010,07,18,12,45,15.40
2010,07,18,12,46,15.50
2010,07,18,12,47,15.60
2010,07,18,12,48,15.70
2010,07,18,12,49,15.80
2010,07,18,12,50,15.80
2010,07,18,12,51,15.80
2010,07,18,12,52,15.90
2010,07,18,12,53,15.90
2010,07,18,12,54,15.80
2010,07,18,12,55,15.90
2010,07,18,12,56,15.90
2010,07,18,12,57,15.90
2010,07,18,12,58,15.80
2010,07,18,12,59,15.70
2010,07,18,13,00,15.70
2010,07,18,13,01,15.70
2010,07,18,13,02,15.80
2010,07,18,13,03,15.80
2010,07,18,13,04,15.80
2010,07,18,13,05,15.80
2010,07,18,13,06,15.80
2010,07,18,13,07,15.80
2010,07,18,13,08,15.90
2010,07,18,13,09,16.00
2010,07,18,13,10,16.10
2010,07,18,13,11,16.10
2010,07,18,13,12,16.10
2010,07,18,13,13,16.10
2010,07,18,13,14,16.10
2010,07,18,13,15,16.20
2010,07,18,13,16,16.20
2010,07,18,13,17,16.30
2010,07,18,13,18,16.30
2010,07,18,13,19,16.30
2010,07,18,13,20,16.30
2010,07,18,13,21,16.30
2010,07,18,13,22,16.30
2010,07,18,13,23,16.30
2010,07,18,13,24,16.30
2010,07,18,13,25,16.10
2010,07,18,13,26,16.00
2010,07,18,13,27,15.90
2010,07,18,13,28,15.90
2010,07,18,13,29,15.80
2010,07,18,13,30,15.80
2010,07,18,13,31,15.90
2010,07,18,13,32,16.00
2010,07,18,13,33,16.10
2010,07,18,13,34,16.10
2010,07,18,13,35,16.10
2010,07,18,13,36,16.10
2010,07,18,13,37,16.10
2010,07,18,13,38,16.10
2010,07,18,13,39,16.10
2010,07,18,13,40,16.20
2010,07,18,13,41,16.30
2010,07,18,13,42,16.20
2010,07,18,13,43,16.20
2010,07,18,13,44,16.20
2010,07,18,13,45,16.20
2010,07,18,13,46,16.30
2010,07,18,13,47,16.30
2010,07,18,13,48,16.40
2010,07,18,13,49,16.50
2010,07,18,13,50,16.60
2010,07,18,13,51,16.60
2010,07,18,13,52,16.60
2010,07,18,13,53,16.60
2010,07,18,13,54,16.60
2010,07,18,13,55,16.60
2010,07,18,13,56,16.50
2010,07,18,13,57,16.30
2010,07,18,13,58,16.30
2010,07,18,13,59,16.30
2010,07,18,14,00,16.30
2010,07,18,14,01,16.30
2010,07,18,14,02,16.30
2010,07,18,14,03,16.20
2010,07,18,14,04,16.10
2010,07,18,14,05,16.00
2010,07,18,14,06,16.10
2010,07,18,14,07,16.10
2010,07,18,14,08,16.00
2010,07,18,14,09,16.00
2010,07,18,14,10,15.90
2010,07,18,14,11,15.90
2010,07,18,14,12,15.90
2010,07,18,14,13,15.80
2010,07,18,14,14,15.80
2010,07,18,14,15,15.80
2010,07,18,14,16,15.70
2010,07,18,14,17,15.70
2010,07,18,14,18,15.70
2010,07,18,14,19,15.80
2010,07,18,14,20,15.80
2010,07,18,14,21,15.80
2010,07,18,14,22,15.70
2010,07,18,14,23,15.70
2010,07,18,14,24,15.60
2010,07,18,14,25,15.70
2010,07,18,14,26,15.60
2010,07,18,14,27,15.60
2010,07,18,14,28,15.50
2010,07,18,14,29,15.60
2010,07,18,14,30,15.70
2010,07,18,14,31,15.80
2010,07,18,14,32,15.80
2010,07,18,14,33,15.80
2010,07,18,14,34,15.80
2010,07,18,14,35,15.80
2010,07,18,14,36,15.80
2010,07,18,14,37,15.90
2010,07,18,14,38,15.90
2010,07,18,14,39,16.00
2010,07,18,14,40,15.90
2010,07,18,14,41,15.80
2010,07,18,14,42,15.80
2010,07,18,14,43,15.80
2010,07,18,14,44,15.80
2010,07,18,14,45,15.80
2010,07,18,14,46,15.90
2010,07,18,14,47,15.90
2010,07,18,14,48,15.80
2010,07,18,14,49,15.80
2010,07,18,14,50,15.80
2010,07,18,14,51,15.90
2010,07,18,14,52,15.90
2010,07,18,14,53,16.10
2010,07,18,14,54,16.10
2010,07,18,14,55,16.20
2010,07,18,14,56,16.20
2010,07,18,14,57,16.20
2010,07,18,14,58,16.20
2010,07,18,14,59,16.30
2010,07,18,15,00,16.30
2010,07,18,15,01,16.30
2010,07,18,15,02,16.30
2010,07,18,15,03,16.30
2010,07,18,15,04,16.40
2010,07,18,15,05,16.60
2010,07,18,15,06,16.60
2010,07,18,15,07,16.50
2010,07,18,15,08,16.60
2010,07,18,15,09,16.60
2010,07,18,15,10,16.60
2010,07,18,15,11,16.60
2010,07,18,15,12,16.70
2010,07,18,15,13,16.70
2010,07,18,15,14,16.80
2010,07,18,15,15,16.80
2010,07,18,15,16,16.80
2010,07,18,15,17,16.70
2010,07,18,15,18,16.70
2010,07,18,15,19,16.70
2010,07,18,15,20,16.70
2010,07,18,15,21,16.70
2010,07,18,15,22,16.70
2010,07,18,15,23,16.60
2010,07,18,15,24,16.50
2010,07,18,15,25,16.50
2010,07,18,15,26,16.60
2010,07,18,15,27,16.70
2010,07,18,15,28,16.80
2010,07,18,15,29,16.70
2010,07,18,15,30,16.80
2010,07,18,15,31,16.80
2010,07,18,15,32,16.70
2010,07,18,15,33,16.60
2010,07,18,15,34,16.50
2010,07,18,15,35,16.40
2010,07,18,15,36,16.30
2010,07,18,15,37,16.20
2010,07,18,15,38,16.20
2010,07,18,15,39,16.20
2010,07,18,15,40,16.30
2010,07,18,15,41,16.40
2010,07,18,15,42,16.50
2010,07,18,15,43,16.60
2010,07,18,15,44,16.70
2010,07,18,15,45,16.70
2010,07,18,15,46,16.70
2010,07,18,15,47,16.50
2010,07,18,15,48,16.50
2010,07,18,15,49,16.40
2010,07,18,15,50,16.40
2010,07,18,15,51,16.40
2010,07,18,15,52,16.40
2010,07,18,15,53,16.40
2010,07,18,15,54,16.40
2010,07,18,15,55,16.40
2010,07,18,15,56,16.50
2010,07,18,15,57,16.60
2010,07,18,15,58,16.70
2010,07,18,15,59,16.70
2010,07,18,16,00,16.70
2010,07,18,16,01,16.70
2010,07,18,16,02,16.70
2010,07,18,16,03,16.80
2010,07,18,16,04,16.70
2010,07,18,16,05,16.60
2010,07,18,16,06,16.50
2010,07,18,16,07,16.40
2010,07,18,16,08,16.50
2010,07,18,16,09,16.50
2010,07,18,16,10,16.50
2010,07,18,16,11,16.50
2010,07,18,16,12,16.60
2010,07,18,16,13,16.60
2010,07,18,16,14,16.60
2010,07,18,16,15,16.60
2010,07,18,16,16,16.60
2010,07,18,16,17,16.70
2010,07,18,16,18,16.80
2010,07,18,16,19,16.90
2010,07,18,16,20,17.00
2010,07,18,16,21,17.20
2010,07,18,16,22,17.30
2010,07,18,16,23,17.40
2010,07,18,16,24,17.50
2010,07,18,16,25,17.70
2010,07,18,16,26,17.80
2010,07,18,16,27,17.90
2010,07,18,16,28,17.90
2010,07,18,16,29,18.00
2010,07,18,16,30,18.10
2010,07,18,16,31,18.20
2010,07,18,16,32,18.30
2010,07,18,16,33,18.50
2010,07,18,16,34,18.70
2010,07,18,16,35,18.70
2010,07,18,16,36,18.70
2010,07,18,16,37,18.70
2010,07,18,16,38,18.70
2010,07,18,16,39,18.50
2010,07,18,16,40,18.30
2010,07,18,16,41,18.30
2010,07,18,16,42,18.20
2010,07,18,16,43,18.20
2010,07,18,16,44,18.20
2010,07,18,16,45,18.20
2010,07,18,16,46,18.20
2010,07,18,16,47,18.10
2010,07,18,16,48,18.10
2010,07,18,16,49,18.10
2010,07,18,16,50,18.00
2010,07,18,16,51,18.00
2010,07,18,16,52,18.00
2010,07,18,16,53,17.90
2010,07,18,16,54,17.90
2010,07,18,16,55,17.90
2010,07,18,16,56,17.90
2010,07,18,16,57,17.90
2010,07,18,16,58,17.90
2010,07,18,16,59,17.90
2010,07,18,17,00,17.80
2010,07,18,17,01,17.80
2010,07,18,17,02,17.80
2010,07,18,17,03,17.80
2010,07,18,17,04,17.80
2010,07,18,17,05,17.80
2010,07,18,17,06,17.80
2010,07,18,17,07,17.80
2010,07,18,17,08,17.80
2010,07,18,17,09,17.80
2010,07,18,17,10,17.80
2010,07,18,17,11,17.90
2010,07,18,17,12,17.90
2010,07,18,17,13,17.90
2010,07,18,17,14,17.90
2010,07,18,17,15,17.90
2010,07,18,17,16,17.90
2010,07,18,17,17,18.00
2010,07,18,17,18,18.00
2010,07,18,17,19,18.10
2010,07,18,17,20,18.10
2010,07,18,17,21,18.20
2010,07,18,17,22,18.20
2010,07,18,17,23,18.10
2010,07,18,17,24,18.10
2010,07,18,17,25,18.10
2010,07,18,17,26,18.10
2010,07,18,17,27,18.10
2010,07,18,17,28,18.10
2010,07,18,17,29,18.10
2010,07,18,17,30,18.10
2010,07,18,17,31,18.00
2010,07,18,17,32,18.00
2010,07,18,17,33,18.00
2010,07,18,17,34,18.00
2010,07,18,17,35,18.00
2010,07,18,17,36,18.00
2010,07,18,17,37,17.90
2010,07,18,17,38,17.90
2010,07,18,17,39,17.90
2010,07,18,17,40,17.90
2010,07,18,17,41,17.90
2010,07,18,17,42,17.90
2010,07,18,17,43,17.90
2010,07,18,17,44,17.80
2010,07,18,17,45,17.80
2010,07,18,17,46,17.80
2010,07,18,17,47,17.80
2010,07,18,17,48,17.80
2010,07,18,17,49,17.90
2010,07,18,17,50,18.00
2010,07,18,17,51,18.00
2010,07,18,17,52,18.00
2010,07,18,17,53,18.00
2010,07,18,17,54,17.90
2010,07,18,17,55,18.00
2010,07,18,17,56,18.00
2010,07,18,17,57,17.90
2010,07,18,17,58,17.90
2010,07,18,17,59,18.00
2010,07,18,18,00,18.10
2010,07,18,18,01,18.10
2010,07,18,18,02,18.00
2010,07,18,18,03,18.00
2010,07,18,18,04,18.00
2010,07,18,18,05,18.10
2010,07,18,18,06,18.10
2010,07,18,18,07,18.10
2010,07,18,18,08,18.10
2010,07,18,18,09,18.10
2010,07,18,18,10,18.10
2010,07,18,18,11,18.10
2010,07,18,18,12,18.10
2010,07,18,18,13,18.20
2010,07,18,18,14,18.20
2010,07,18,18,15,18.10
2010,07,18,18,16,18.20
2010,07,18,18,17,18.20
2010,07,18,18,18,18.20
2010,07,18,18,19,18.20
2010,07,18,18,20,18.10
2010,07,18,18,21,18.00
2010,07,18,18,22,18.00
2010,07,18,18,23,18.00
2010,07,18,18,24,18.00
2010,07,18,18,25,18.10
2010,07,18,18,26,18.20
2010,07,18,18,27,18.20
2010,07,18,18,28,18.20
2010,07,18,18,29,18.20
2010,07,18,18,30,18.10
2010,07,18,18,31,18.00
2010,07,18,18,32,17.90
2010,07,18,18,33,17.90
2010,07,18,18,34,17.90
2010,07,18,18,35,17.90
2010,07,18,18,36,17.80
2010,07,18,18,37,17.90
2010,07,18,18,38,17.90
2010,07,18,18,39,18.00
2010,07,18,18,40,18.10
2010,07,18,18,41,18.10
2010,07,18,18,42,18.10
2010,07,18,18,43,18.20
2010,07,18,18,44,18.20
2010,07,18,18,45,18.20
2010,07,18,18,46,18.20
2010,07,18,18,47,18.20
2010,07,18,18,48,18.30
2010,07,18,18,49,18.30
2010,07,18,18,50,18.30
2010,07,18,18,51,18.30
2010,07,18,18,52,18.40
2010,07,18,18,53,18.40
2010,07,18,18,54,18.40
2010,07,18,18,55,18.40
2010,07,18,18,56,18.50
2010,07,18,18,57,18.60
2010,07,18,18,58,18.60
2010,07,18,18,59,18.60
2010,07,18,19,00,18.50
2010,07,18,19,01,18.40
2010,07,18,19,02,18.30
2010,07,18,19,03,18.30
2010,07,18,19,04,18.30
2010,07,18,19,05,18.30
2010,07,18,19,06,18.20
2010,07,18,19,07,18.20
2010,07,18,19,08,18.30
2010,07,18,19,09,18.30
2010,07,18,19,10,18.30
2010,07,18,19,11,18.30
2010,07,18,19,12,18.40
2010,07,18,19,13,18.40